| time (UTC) | temp F | wind direction | speed knots | gust knots | rain 1hr in | rain 24hr in | rain mn in | humidity % | barometer mb |
| 20260906113048 | 73 | 58 | 0.9 | 3.5 | 0.00 | 0.02 | 0.02 | 77 | 1011.8 |
| 20260906111552 | 73 | 41 | 0.9 | 2.6 | 0.00 | 0.02 | 0.02 | 77 | 1011.6 |
| 20260906110040 | 73 | 35 | 0.9 | 2.6 | 0.00 | 0.02 | 0.02 | 77 | 1011.3 |
| 20260906104539 | 73 | 15 | 1.7 | 4.3 | 0.00 | 0.02 | 0.02 | 78 | 1011.2 |
| 20260906103037 | 73 | 36 | 1.7 | 3.5 | 0.00 | 0.02 | 0.02 | 78 | 1011.1 |
| 20260906101538 | 73 | 31 | 0.9 | 2.6 | 0.00 | 0.02 | 0.02 | 78 | 1011.0 |
| 20260906100036 | 73 | 63 | 0.0 | 2.6 | 0.00 | 0.02 | 0.02 | 78 | 1010.7 |
| 20260906094540 | 73 | 62 | 0.9 | 3.5 | 0.00 | 0.02 | 0.02 | 78 | 1010.5 |
| 20260906093038 | 73 | 106 | 0.9 | 2.6 | 0.00 | 0.02 | 0.02 | 78 | 1010.4 |
| 20260906091535 | 73 | 124 | 0.0 | 0.0 | 0.00 | 0.02 | 0.02 | 78 | 1010.2 |
| 20260906090034 | 72 | 124 | 0.0 | 0.0 | 0.00 | 0.02 | 0.02 | 78 | 1010.2 |
| 20260906084544 | 72 | 127 | 0.0 | 0.0 | 0.00 | 0.02 | 0.02 | 78 | 1010.0 |
| 20260906083036 | 71 | 127 | 0.0 | 0.0 | 0.00 | 0.02 | 0.02 | 78 | 1010.1 |
| 20260906081502 | 71 | 130 | 0.0 | 0.0 | 0.00 | 0.02 | 0.02 | 77 | 1009.9 |
| 20260906080109 | 71 | 130 | 0.0 | 0.0 | 0.00 | 0.02 | 0.02 | 76 | 1009.6 |
| 20260906074600 | 71 | 130 | 0.0 | 0.0 | 0.00 | 0.02 | 0.02 | 76 | 1009.5 |
| 20260906073056 | 71 | 130 | 0.0 | 0.0 | 0.00 | 0.02 | 0.02 | 76 | 1009.4 |
| 20260906071601 | 71 | 130 | 0.0 | 0.0 | 0.00 | 0.02 | 0.02 | 76 | 1009.4 |
| 20260906070056 | 71 | 130 | 0.0 | 0.0 | 0.00 | 0.02 | 0.02 | 75 | 1009.4 |
| 20260906064551 | 72 | 130 | 0.0 | 0.0 | 0.00 | 0.02 | 0.02 | 75 | 1009.5 |
| 20260906063055 | 72 | 130 | 0.0 | 0.0 | 0.00 | 0.02 | 0.02 | 74 | 1009.7 |
| 20260906061553 | 72 | 130 | 0.0 | 0.0 | 0.00 | 0.02 | 0.02 | 74 | 1009.8 |
| 20260906060047 | 72 | 130 | 0.0 | 0.0 | 0.00 | 0.02 | 0.02 | 74 | 1010.0 |
| 20260906054517 | 73 | 130 | 0.0 | 0.0 | 0.00 | 0.02 | 0.02 | 73 | 1010.1 |
| 20260906053015 | 73 | 130 | 0.0 | 0.0 | 0.00 | 0.02 | 0.02 | 73 | 1010.3 |
| 20260906051512 | 73 | 130 | 0.0 | 0.0 | 0.00 | 0.02 | 0.02 | 72 | 1010.5 |
| 20260906050009 | 73 | 130 | 0.0 | 0.0 | 0.00 | 0.02 | 0.02 | 72 | 1010.4 |
| 20260906044513 | 73 | 130 | 0.0 | 0.0 | 0.00 | 0.02 | 0.02 | 71 | 1010.8 |
| 20260906043007 | 73 | 130 | 0.0 | 0.0 | 0.00 | 0.02 | 0.02 | 70 | 1010.8 |
| 20260906041505 | 74 | 130 | 0.0 | 0.0 | 0.00 | 0.02 | 0.02 | 69 | 1010.8 |
| 20260906040006 | 74 | 130 | 0.0 | 0.0 | 0.00 | 0.02 | 0.02 | 68 | 1010.9 |
| 20260906034506 | 74 | 130 | 0.0 | 0.0 | 0.00 | 0.02 | 0.02 | 68 | 1011.0 |
| 20260906033005 | 74 | 130 | 0.0 | 0.0 | 0.00 | 0.02 | 0.02 | 67 | 1011.0 |
| 20260906031531 | 74 | 130 | 0.0 | 0.0 | 0.00 | 0.02 | 0.02 | 67 | 1010.9 |
| 20260906030030 | 75 | 130 | 0.0 | 0.0 | 0.00 | 0.02 | 0.02 | 66 | 1010.8 |
| 20260906024527 | 75 | 128 | 0.0 | 0.0 | 0.00 | 0.02 | 0.02 | 66 | 1010.6 |
| 20260906023026 | 75 | 128 | 0.0 | 0.0 | 0.00 | 0.02 | 0.02 | 67 | 1010.9 |
| 20260906021526 | 75 | 128 | 0.0 | 0.9 | 0.00 | 0.02 | 0.02 | 68 | 1010.7 |
| 20260906020026 | 75 | 133 | 0.9 | 1.7 | 0.00 | 0.02 | 0.02 | 73 | 1010.4 |
| 20260906014535 | 75 | 133 | 0.0 | 0.0 | 0.00 | 0.02 | 0.02 | 70 | 1010.5 |
| 20260906013021 | 75 | 133 | 0.0 | 0.0 | 0.00 | 0.02 | 0.02 | 68 | 1010.5 |
| 20260906011533 | 75 | 133 | 0.0 | 0.0 | 0.00 | 0.02 | 0.02 | 67 | 1010.3 |
| 20260906010019 | 76 | 133 | 0.0 | 0.0 | 0.00 | 0.02 | 0.02 | 67 | 1010.3 |
| 20260906004547 | 76 | 133 | 0.0 | 0.0 | 0.00 | 0.02 | 0.02 | 67 | 1010.2 |
| 20260906003100 | 76 | 133 | 0.0 | 0.0 | 0.00 | 0.02 | 0.02 | 66 | 1010.1 |
| 20260906001544 | 76 | 133 | 0.0 | 0.0 | 0.00 | 0.02 | 0.02 | 66 | 1010.0 |
| 20260906000043 | 76 | 133 | 0.0 | 0.0 | 0.00 | 0.02 | 0.02 | 65 | 1009.7 |
| 20260905234542 | 77 | 133 | 0.0 | 0.9 | 0.00 | 0.02 | 0.02 | 65 | 1009.6 |
| 20260905233042 | 77 | 133 | 0.0 | 0.0 | 0.00 | 0.02 | 0.02 | 65 | 1009.2 |
| 20260905231512 | 77 | 133 | 0.0 | 0.9 | 0.00 | 0.02 | 0.02 | 65 | 1009.0 |
| 20260905230015 | 77 | 133 | 0.0 | 0.9 | 0.00 | 0.02 | 0.02 | 66 | 1008.4 |
| 20260905224515 | 76 | 134 | 0.0 | 0.0 | 0.00 | 0.02 | 0.02 | 65 | 1008.1 |
| 20260905223007 | 76 | 134 | 0.0 | 0.0 | 0.00 | 0.02 | 0.02 | 66 | 1008.3 |
| 20260905221506 | 76 | 134 | 0.0 | 0.0 | 0.00 | 0.02 | 0.02 | 65 | 1008.8 |
| 20260905220006 | 76 | 134 | 0.0 | 0.0 | 0.01 | 0.02 | 0.02 | 64 | 1009.0 |
| 20260905214501 | 77 | 134 | 0.0 | 0.0 | 0.02 | 0.02 | 0.02 | 64 | 1008.8 |
| 20260905213059 | 77 | 134 | 0.0 | 0.0 | 0.02 | 0.02 | 0.02 | 65 | 1008.7 |
| 20260905211556 | 78 | 134 | 0.0 | 2.6 | 0.02 | 0.02 | 0.02 | 63 | 1008.5 |
| 20260905210055 | 80 | 19 | 0.9 | 3.5 | 0.01 | 0.01 | 0.01 | 59 | 1008.8 |
| 20260905204558 | 81 | 28 | 0.9 | 3.5 | 0.00 | 0.00 | 0.00 | 56 | 1008.5 |
| 20260905203053 | 82 | 37 | 0.0 | 5.2 | 0.00 | 0.00 | 0.00 | 55 | 1008.6 |
| 20260905201545 | 83 | 355 | 2.6 | 7.8 | 0.00 | 0.00 | 0.00 | 53 | 1008.5 |
| 20260905200050 | 85 | 348 | 3.5 | 8.7 | 0.00 | 0.00 | 0.00 | 52 | 1008.4 |
| 20260905194535 | 93 | 12 | 6.1 | 12.2 | 0.00 | 0.00 | 0.00 | 42 | 1008.3 |
| 20260905193031 | 95 | 70 | 0.0 | 0.0 | 0.00 | 0.00 | 0.00 | 38 | 1008.1 |
| 20260905191530 | 96 | 71 | 0.0 | 1.7 | 0.00 | 0.00 | 0.00 | 37 | 1007.8 |
| 20260905190034 | 96 | 71 | 0.0 | 0.9 | 0.00 | 0.00 | 0.00 | 34 | 1007.8 |
| 20260905184528 | 96 | 147 | 0.0 | 3.5 | 0.00 | 0.00 | 0.00 | 36 | 1007.9 |
| 20260905183058 | 97 | 5 | 0.0 | 3.5 | 0.00 | 0.00 | 0.00 | 34 | 1008.2 |
| 20260905181554 | 96 | 22 | 0.0 | 1.7 | 0.00 | 0.00 | 0.00 | 37 | 1008.4 |
| 20260905180020 | 96 | 28 | 0.0 | 2.6 | 0.00 | 0.00 | 0.00 | 37 | 1008.9 |
| 20260905174517 | 96 | 221 | 0.9 | 4.3 | 0.00 | 0.00 | 0.00 | 38 | 1009.3 |
| 20260905173010 | 95 | 100 | 0.0 | 2.6 | 0.00 | 0.00 | 0.00 | 39 | 1009.6 |
| 20260905171518 | 95 | 225 | 0.0 | 2.6 | 0.00 | 0.00 | 0.00 | 40 | 1010.0 |
| 20260905170006 | 95 | 238 | 0.9 | 6.1 | 0.00 | 0.00 | 0.00 | 40 | 1010.2 |
| 20260905164505 | 95 | 79 | 0.0 | 1.7 | 0.00 | 0.00 | 0.00 | 42 | 1010.3 |
| 20260905163101 | 95 | 335 | 0.0 | 3.5 | 0.00 | 0.00 | 0.00 | 42 | 1010.5 |
| 20260905161554 | 93 | 73 | 0.0 | 1.7 | 0.00 | 0.00 | 0.00 | 43 | 1010.9 |
| 20260905160054 | 93 | 348 | 0.9 | 3.5 | 0.00 | 0.00 | 0.00 | 44 | 1011.0 |
| 20260905154556 | 93 | 205 | 0.0 | 1.7 | 0.00 | 0.00 | 0.00 | 47 | 1011.3 |
| 20260905153029 | 92 | 338 | 0.0 | 1.7 | 0.00 | 0.00 | 0.00 | 47 | 1011.4 |
| 20260905151525 | 91 | 343 | 0.0 | 0.0 | 0.00 | 0.00 | 0.00 | 51 | 1011.4 |
| 20260905150015 | 90 | 200 | 0.0 | 0.9 | 0.00 | 0.00 | 0.00 | 54 | 1011.6 |
| 20260905144517 | 88 | 331 | 0.0 | 2.6 | 0.00 | 0.00 | 0.00 | 54 | 1011.6 |
| 20260905143015 | 88 | 207 | 0.0 | 1.7 | 0.00 | 0.00 | 0.00 | 56 | 1011.5 |
| 20260905141515 | 86 | 225 | 0.0 | 2.6 | 0.00 | 0.00 | 0.00 | 57 | 1011.5 |
| 20260905140048 | 85 | 257 | 0.0 | 0.0 | 0.00 | 0.00 | 0.00 | 60 | 1011.4 |
| 20260905134544 | 83 | 12 | 0.0 | 1.7 | 0.00 | 0.00 | 0.00 | 60 | 1011.4 |
| 20260905133012 | 82 | 286 | 0.0 | 1.7 | 0.00 | 0.00 | 0.00 | 60 | 1011.4 |
| 20260905131526 | 80 | 193 | 0.0 | 2.6 | 0.00 | 0.00 | 0.00 | 60 | 1011.5 |
| 20260905130042 | 80 | 225 | 0.0 | 0.9 | 0.00 | 0.00 | 0.00 | 61 | 1011.7 |
| 20260905124542 | 79 | 223 | 0.0 | 0.9 | 0.00 | 0.00 | 0.00 | 62 | 1011.7 |
| 20260905123038 | 77 | 296 | 0.0 | 0.9 | 0.00 | 0.00 | 0.00 | 64 | 1011.8 |
| 20260905121538 | 77 | 281 | 0.0 | 1.7 | 0.00 | 0.00 | 0.00 | 65 | 1011.6 |
| 20260905120037 | 76 | 194 | 0.0 | 0.0 | 0.00 | 0.00 | 0.00 | 66 | 1011.5 |
| 20260905114543 | 75 | 194 | 0.0 | 0.9 | 0.00 | 0.00 | 0.00 | 67 | 1011.4 |